Chipley, FL

1:42 AM CDT on August 17, 2017 (GMT -0500)
Chipley

Weather History for KVSH - December, 2013

Change the Weather History Date:

Friday, December 6, 2013

  Actual Average (KDHN) Record (KDHN)
Temperature  
Mean Temperature 64 °F -  
Max Temperature 80 °F 66 °F 82 °F (1951)
Min Temperature 46 °F 45 °F 28 °F (2010)
Degree Days  
Heating Degree Days 1    
Growing Degree Days 14 (Base 50)    
Moisture  
Dew Point 62 °F    
Average Humidity 81    
Maximum Humidity 89    
Minimum Humidity 70    
Precipitation  
Precipitation 0.34 in - - ()
Sea Level Pressure  
Sea Level Pressure 30.04 in    
Wind  
Wind Speed 11 mph (South)    
Max Wind Speed 16 mph    
Max Gust Speed 25 mph    
Visibility 10 miles    
Events      
Averages and records for this station are not official NWS values.
T = Trace of Precipitation, MM = Missing Value Source: NWS Daily Summary

Daily Weather History Graph

Daily Weather History Graph

Search for Another Location

Airport or City:

Trip Planner

Search our weather history database for the weather conditions in past years. The results will help you decide how hot, cold, wet, or windy it might be!

Date:

Astronomy

Dec. 06, 2013 Rise Set
Actual Time 6:26 AM CST 4:40 PM CST
Civil Twilight 6:00 AM CST 5:07 PM CST
Nautical Twilight 5:30 AM CST 5:36 PM CST
Astronomical Twilight 5:00 AM CST 6:06 PM CST
Moon 9:40 AM CST (12/6) 9:00 PM CST (12/6)
Length of Visible Light 11h 07m
Length of Day
10h 14m
Waxing Crescent, 19% of the Moon is Illuminated
Dec 6
Waxing Crescent
Dec 9
First Quarter
Dec 17
Full
Dec 25
Last Quarter
Jan 1
New

Hourly Weather History & Observations

Time (CST) Temp. Windchill Dew Point Humidity Pressure Visibility Wind Dir Wind Speed Gust Speed Precip Events Conditions
12:15 AM 73.4 °F - 69.8 °F 88% 29.98 in 10.0 mi SSE 11.5 mph 17.3 mph N/A   Overcast
12:35 AM 73.4 °F - 69.8 °F 88% 29.98 in 10.0 mi SSE 9.2 mph 16.1 mph N/A   Overcast
12:55 AM 73.4 °F - 69.8 °F 88% 29.97 in 10.0 mi South 11.5 mph 20.7 mph N/A   Overcast
1:15 AM 73.4 °F - 69.8 °F 88% 29.97 in 10.0 mi SSE 10.4 mph 16.1 mph N/A   Overcast
1:35 AM 73.4 °F - 69.8 °F 88% 29.97 in 10.0 mi South 9.2 mph - N/A   Overcast
1:55 AM 73.4 °F - 69.8 °F 88% 29.97 in 10.0 mi South 10.4 mph - N/A   Overcast
2:15 AM 73.4 °F - 69.8 °F 88% 29.96 in 10.0 mi SSE 13.8 mph 19.6 mph N/A   Overcast
2:35 AM 73.4 °F - 69.8 °F 88% 29.97 in 10.0 mi South 10.4 mph - N/A   Overcast
2:55 AM 73.4 °F - 69.8 °F 88% 29.96 in 10.0 mi South 9.2 mph - N/A   Overcast
3:15 AM 73.4 °F - 69.8 °F 88% 29.96 in 10.0 mi South 10.4 mph - N/A   Overcast
3:35 AM 73.4 °F - 69.8 °F 88% 29.96 in 10.0 mi SSE 10.4 mph - N/A   Overcast
3:55 AM 73.4 °F - 69.8 °F 88% 29.96 in 10.0 mi South 8.1 mph - N/A   Overcast
4:15 AM 73.4 °F - 69.8 °F 88% 29.96 in 10.0 mi South 11.5 mph 19.6 mph N/A   Overcast
4:35 AM 73.4 °F - 69.8 °F 88% 29.96 in 7.0 mi South 9.2 mph - N/A   Overcast
4:55 AM 73.4 °F - 69.8 °F 88% 29.96 in 9.0 mi SSE 10.4 mph - N/A   Overcast
5:15 AM 73.4 °F - 69.8 °F 88% 29.96 in 8.0 mi South 9.2 mph 16.1 mph N/A   Overcast
5:35 AM 73.4 °F - 69.8 °F 88% 29.97 in 10.0 mi South 8.1 mph - N/A   Overcast
5:55 AM 73.4 °F - 69.8 °F 88% 29.98 in 9.0 mi South 8.1 mph - N/A   Overcast
6:15 AM 73.4 °F - 69.8 °F 88% 29.98 in 10.0 mi South 9.2 mph - N/A   Overcast
6:35 AM 73.4 °F - 69.8 °F 88% 29.98 in 10.0 mi South 9.2 mph 16.1 mph N/A   Overcast
6:55 AM 73.4 °F - 68.0 °F 83% 30.00 in 10.0 mi South 11.5 mph 16.1 mph N/A   Overcast
7:15 AM 73.4 °F - 68.0 °F 83% 30.01 in 10.0 mi South 8.1 mph - N/A   Overcast
7:35 AM 73.4 °F - 69.8 °F 88% 30.02 in 10.0 mi South 10.4 mph - N/A   Overcast
7:55 AM 73.4 °F - 69.8 °F 88% 30.02 in 10.0 mi South 8.1 mph - N/A   Overcast
8:15 AM 73.4 °F - 69.8 °F 88% 30.03 in 10.0 mi South 8.1 mph - N/A   Overcast
8:35 AM 73.4 °F - 69.8 °F 88% 30.03 in 10.0 mi South 10.4 mph - N/A   Overcast
8:55 AM 75.2 °F - 69.8 °F 83% 30.03 in 10.0 mi SSE 10.4 mph - N/A   Overcast
9:15 AM 75.2 °F - 69.8 °F 83% 30.03 in 10.0 mi South 10.4 mph 18.4 mph N/A   Overcast
9:35 AM 75.2 °F - 69.8 °F 83% 30.03 in 10.0 mi SSE 8.1 mph 17.3 mph N/A   Overcast
9:55 AM 77.0 °F - 69.8 °F 78% 30.03 in 10.0 mi South 9.2 mph 17.3 mph N/A   Overcast
10:15 AM 77.0 °F - 69.8 °F 78% 30.03 in 10.0 mi South 11.5 mph 16.1 mph N/A   Overcast
10:35 AM 78.8 °F - 69.8 °F 74% 30.03 in 10.0 mi South 16.1 mph 23.0 mph N/A   Mostly Cloudy
10:55 AM 78.8 °F - 69.8 °F 74% 30.03 in 10.0 mi South 12.7 mph 19.6 mph N/A   Overcast
11:15 AM 80.6 °F - 69.8 °F 70% 30.03 in 10.0 mi South 11.5 mph 20.7 mph N/A   Overcast
11:35 AM 78.8 °F - 69.8 °F 74% 30.02 in 10.0 mi South 12.7 mph 19.6 mph N/A   Mostly Cloudy
11:55 AM 78.8 °F - 69.8 °F 74% 30.02 in 10.0 mi South 13.8 mph 19.6 mph N/A   Mostly Cloudy
12:15 PM 80.6 °F - 69.8 °F 70% 30.01 in 10.0 mi South 10.4 mph 18.4 mph N/A   Overcast
12:35 PM 80.6 °F - 69.8 °F 70% 30.00 in 10.0 mi South 12.7 mph 21.9 mph N/A   Mostly Cloudy
12:55 PM 80.6 °F - 69.8 °F 70% 29.99 in 10.0 mi SSW 15.0 mph 20.7 mph N/A   Mostly Cloudy
1:15 PM 80.6 °F - 69.8 °F 70% 29.99 in 10.0 mi South 15.0 mph 24.2 mph N/A   Mostly Cloudy
1:35 PM 80.6 °F - 69.8 °F 70% 29.99 in 10.0 mi SSW 12.7 mph 23.0 mph N/A   Mostly Cloudy
1:55 PM 80.6 °F - 69.8 °F 70% 29.98 in 10.0 mi South 16.1 mph 21.9 mph N/A   Mostly Cloudy
2:15 PM 80.6 °F - 69.8 °F 70% 29.98 in 10.0 mi South 13.8 mph 25.3 mph N/A   Scattered Clouds
2:35 PM 80.6 °F - 69.8 °F 70% 29.98 in 10.0 mi SSW 15.0 mph 21.9 mph N/A   Scattered Clouds
2:55 PM 80.6 °F - 69.8 °F 70% 29.98 in 10.0 mi South 15.0 mph 23.0 mph N/A   Mostly Cloudy
3:15 PM 78.8 °F - 69.8 °F 74% 29.98 in 10.0 mi SSW 12.7 mph 25.3 mph N/A   Mostly Cloudy
3:35 PM 78.8 °F - 69.8 °F 74% 29.99 in 9.0 mi SSW 10.4 mph - N/A   Overcast
3:55 PM 78.8 °F - 69.8 °F 74% 30.00 in 10.0 mi SSW 11.5 mph 17.3 mph N/A   Overcast
4:15 PM 75.2 °F - 71.6 °F 89% 30.01 in 8.0 mi SW 6.9 mph - 0.04 in   Mostly Cloudy
4:35 PM 62.6 °F - 57.2 °F 82% 30.04 in 6.0 mi NNW 8.1 mph 18.4 mph 0.10 in   Overcast
4:55 PM 60.8 °F - 55.4 °F 82% 30.06 in 6.0 mi WNW 11.5 mph 19.6 mph 0.11 in   Overcast
5:15 PM 59.0 °F - 51.8 °F 77% 30.07 in 10.0 mi NW 10.4 mph 19.6 mph 0.01 in   Overcast
5:35 PM 57.2 °F - 51.8 °F 82% 30.07 in 5.0 mi NNW 9.2 mph 16.1 mph 0.11 in   Overcast
5:55 PM 57.2 °F - 51.8 °F 82% 30.08 in 10.0 mi NNW 8.1 mph - 0.15 in   Overcast
6:15 PM 57.2 °F - 51.8 °F 82% 30.09 in 10.0 mi North 8.1 mph - N/A   Overcast
6:35 PM 55.4 °F - 48.2 °F 77% 30.11 in 10.0 mi North 11.5 mph 19.6 mph N/A   Overcast
6:55 PM 53.6 °F - 46.4 °F 77% 30.13 in 10.0 mi North 10.4 mph 19.6 mph N/A   Overcast
7:15 PM 51.8 °F - 44.6 °F 76% 30.13 in 10.0 mi North 10.4 mph 21.9 mph N/A   Overcast
7:35 PM 51.8 °F - 46.4 °F 82% 30.14 in 10.0 mi North 9.2 mph - N/A   Overcast
7:55 PM 53.6 °F - 46.4 °F 77% 30.14 in 10.0 mi NNW 5.8 mph - N/A   Overcast
8:15 PM 51.8 °F - 46.4 °F 82% 30.14 in 10.0 mi North 6.9 mph - N/A   Overcast
8:35 PM 53.6 °F - 46.4 °F 77% 30.15 in 10.0 mi North 6.9 mph - N/A   Overcast
8:55 PM 51.8 °F - 46.4 °F 82% 30.15 in 10.0 mi North 6.9 mph - N/A   Overcast
9:15 PM 51.8 °F - 44.6 °F 76% 30.17 in 10.0 mi NNW 6.9 mph 17.3 mph N/A   Overcast
9:35 PM 51.8 °F - 44.6 °F 76% 30.17 in 10.0 mi North 10.4 mph 18.4 mph N/A   Overcast
9:55 PM 51.8 °F - 42.8 °F 71% 30.18 in 10.0 mi North 11.5 mph 19.6 mph N/A   Overcast
10:15 PM 50.0 °F - 42.8 °F 76% 30.20 in 10.0 mi North 13.8 mph 17.3 mph N/A   Overcast
10:35 PM 50.0 °F - 42.8 °F 76% 30.20 in 9.0 mi North 11.5 mph 20.7 mph 0.01 in   Overcast
10:55 PM 48.2 °F - 42.8 °F 82% 30.20 in 5.0 mi North 10.4 mph 17.3 mph 0.06 in   Overcast
11:15 PM 48.2 °F - 44.6 °F 87% 30.20 in 6.0 mi NNE 6.9 mph - 0.02 in   Overcast
11:35 PM 48.2 °F - 42.8 °F 82% 30.21 in 10.0 mi NNW 9.2 mph - 0.02 in   Overcast
11:55 PM 46.4 °F 41.5 °F 42.8 °F 87% 30.22 in 10.0 mi North 10.4 mph 16.1 mph 0.02 in   Overcast